Regional Weather Roundup
Issued by NWS

Home | Current Version | Previous Version | Graphics & Text | Print | Product List | Glossary On
Versions: 1 2 3 4 5 6 7 8 9 10 11 12 13 14 15 16 17 18 19 20 21 22 23 24 25 26 27 28 29 30 31 32 33 34 35 36 37 38 39 40 41 42 43 44 45 46 47 48 49 50
000
ASUS44 KMEG 011210
RWRTN
TENNESSEE HOURLY STATE WEATHER ROUNDUP
NATIONAL WEATHER SERVICE MEMPHIS TN
700 AM CDT WED JUL 01 2015

TNZ002-004-019-021-049-052-054-088>092-011300-
WEST TENNESSEE

CITY           SKY/WX    TMP DP  RH WIND       PRES   REMARKS
MEMPHIS INTL   CLOUDY    76  71  85 SW6       29.96S
NWS MEMPHIS      N/A     76 N/A N/A MISG        N/A
JACKSON        CLOUDY    75  72  90 S8        29.96R
DYERSBURG        N/A    N/A N/A N/A MISG        N/A
PARIS          PTSUNNY   72  70  94 CALM      29.96R
LEXINGTON      PTSUNNY   72  72 100 S5        29.96R
$$

TNZ008-025-027-028-033-062-065-066-011300-
NORTH MIDDLE TENNESSEE

CITY           SKY/WX    TMP DP  RH WIND       PRES   REMARKS
NASHVILLE      CLOUDY    74  71  91 CALM      29.98R
CLARKSVILLE    PTSUNNY   74  70  87 W6        29.94R
SMYRNA         MOSUNNY   73  71  93 CALM      29.99R
COOKEVILLE     CLOUDY    73  72  94 SW7       29.99R
CROSSVILLE     PTSUNNY   71  67  87 VRB5      30.04R FOG
$$

TNZ061-075-076-078-094-096-097-011300-
SOUTH MIDDLE TENNESSEE

CITY           SKY/WX    TMP DP  RH WIND       PRES   REMARKS
FAYETTEVILLE   CLOUDY    70  70 100 S5        30.03R
TULLAHOMA      PTSUNNY   70  68  94 S5        30.03R
WINCHESTER     CLOUDY    73  70  88 SW5       30.02R
MCMINNVILLE    MOSUNNY   72  72 100 SW3       30.01R
COLUMBIA       PTSUNNY   73  73 100 SW7       29.97S
SHELBYVILLE    SUNNY     72  72 100 S3        30.01R
$$

TNZ017-018-042-046-047-011300-
NORTHEAST TENNESSEE

CITY           SKY/WX    TMP DP  RH WIND       PRES   REMARKS
TRI CITIES     CLOUDY    68  65  90 SW5       30.02S
ELIZABETHTON   CLOUDY    66  64  94 W6        30.02S
$$

TNZ012-013-036-069-073-074-011300-
CENTRAL EAST TENNESSEE

CITY           SKY/WX    TMP DP  RH WIND       PRES   REMARKS
KNOXVILLE      PTSUNNY   70  68  93 SW10      29.99S
OAK RIDGE      PTSUNNY   71  68  90 CALM      30.00S FOG
GATLINBURG     MOSUNNY   70  66  88 S3        29.99S
MORRISTOWN     PTSUNNY   70  68  94 W6        30.01F
$$

TNZ083-085-099-011300-
SOUTHEAST TENNESSEE

CITY           SKY/WX    TMP DP  RH WIND       PRES   REMARKS
CHATTANOOGA    CLOUDY    73  68  84 S6        30.01R
$$

SKY/WX REPORTED AS FAIR MEANS FEW OR NO CLOUDS BELOW
12 THOUSAND FEET.



USA.gov is the U.S. government's official web portal to all federal, state and local government web resources and services.